TimeCDT,TemperatureF,Dew PointF,Humidity,Sea Level PressureIn,VisibilityMPH,Wind Direction,Wind SpeedMPH,Gust SpeedMPH,PrecipitationIn,Events,Conditions,WindDirDegrees,DateUTC
12:28 AM,69.8,62.6,78,29.79,10.0,ENE,3.5,-,N/A,,Mostly Cloudy,70,2013-04-14 05:28:00
12:51 AM,69.1,63.0,81,29.78,10.0,ENE,3.5,-,N/A,,Mostly Cloudy,70,2013-04-14 05:51:00
1:09 AM,69.8,62.6,78,29.79,10.0,ENE,3.5,-,N/A,,Scattered Clouds,70,2013-04-14 06:09:00
1:29 AM,69.8,62.6,78,29.79,10.0,East,3.5,-,N/A,,Mostly Cloudy,80,2013-04-14 06:29:00
1:44 AM,69.8,62.6,78,29.78,10.0,East,3.5,-,N/A,,Scattered Clouds,80,2013-04-14 06:44:00
1:51 AM,68.0,63.0,84,29.78,10.0,ENE,3.5,-,N/A,,Scattered Clouds,70,2013-04-14 06:51:00
2:04 AM,66.2,62.6,88,29.78,10.0,NE,3.5,-,N/A,,Mostly Cloudy,40,2013-04-14 07:04:00
2:51 AM,68.0,63.0,84,29.78,6.0,North,4.6,-,0.00,Rain,Light Rain,360,2013-04-14 07:51:00
3:32 AM,66.2,62.6,88,29.76,10.0,Calm,Calm,-,0.00,,Mostly Cloudy,0,2013-04-14 08:32:00
3:51 AM,68.0,63.0,84,29.75,10.0,ESE,3.5,-,0.00,,Mostly Cloudy,110,2013-04-14 08:51:00
4:51 AM,64.9,61.0,87,29.72,10.0,SE,8.1,-,N/A,,Scattered Clouds,130,2013-04-14 09:51:00
5:51 AM,66.9,62.1,84,29.71,10.0,SSE,9.2,-,N/A,,Scattered Clouds,150,2013-04-14 10:51:00
6:51 AM,66.0,63.0,90,29.72,8.0,SSE,6.9,-,N/A,,Partly Cloudy,160,2013-04-14 11:51:00
7:35 AM,66.2,64.4,94,29.73,5.0,SSE,5.8,-,N/A,,Partly Cloudy,150,2013-04-14 12:35:00
7:51 AM,68.0,64.0,87,29.74,5.0,SSE,4.6,-,N/A,,Partly Cloudy,150,2013-04-14 12:51:00
8:26 AM,71.6,66.2,83,29.75,7.0,SSE,8.1,-,N/A,,Mostly Cloudy,150,2013-04-14 13:26:00
8:51 AM,73.0,66.9,81,29.76,10.0,SSE,5.8,-,N/A,,Scattered Clouds,160,2013-04-14 13:51:00
9:51 AM,77.0,66.9,71,29.76,10.0,South,8.1,-,N/A,,Scattered Clouds,180,2013-04-14 14:51:00
10:15 AM,78.8,66.2,65,29.76,10.0,South,9.2,-,N/A,,Mostly Cloudy,190,2013-04-14 15:15:00
10:51 AM,82.9,66.9,58,29.75,10.0,South,13.8,19.6,N/A,,Mostly Cloudy,190,2013-04-14 15:51:00
11:28 AM,86.0,66.2,51,29.75,10.0,South,15.0,25.3,N/A,,Mostly Cloudy,190,2013-04-14 16:28:00
11:51 AM,86.0,66.9,53,29.75,10.0,SSW,13.8,-,N/A,,Mostly Cloudy,200,2013-04-14 16:51:00
12:51 PM,87.1,66.0,49,29.73,10.0,South,11.5,19.6,N/A,,Mostly Cloudy,190,2013-04-14 17:51:00
1:51 PM,90.0,66.0,45,29.70,10.0,SSW,10.4,19.6,N/A,,Mostly Cloudy,200,2013-04-14 18:51:00
2:51 PM,91.0,66.0,44,29.68,10.0,South,6.9,16.1,N/A,,Scattered Clouds,190,2013-04-14 19:51:00
3:51 PM,91.9,66.0,42,29.65,10.0,SSW,11.5,18.4,N/A,,Scattered Clouds,200,2013-04-14 20:51:00
4:51 PM,91.0,68.0,47,29.65,10.0,SSE,19.6,-,N/A,,Scattered Clouds,150,2013-04-14 21:51:00
5:51 PM,87.1,68.0,53,29.65,10.0,SE,20.7,-,N/A,,Partly Cloudy,130,2013-04-14 22:51:00
6:51 PM,82.0,68.0,62,29.65,10.0,SSE,24.2,-,N/A,,Clear,150,2013-04-14 23:51:00
7:51 PM,78.1,66.9,68,29.66,10.0,SSE,20.7,-,N/A,,Clear,150,2013-04-15 00:51:00
8:51 PM,75.9,68.0,76,29.67,10.0,SSE,19.6,-,N/A,,Clear,150,2013-04-15 01:51:00
9:51 PM,75.0,68.0,79,29.69,10.0,SSE,17.3,-,N/A,,Clear,150,2013-04-15 02:51:00
10:51 PM,73.9,68.0,82,29.72,10.0,SSE,18.4,-,N/A,,Scattered Clouds,160,2013-04-15 03:51:00
11:04 PM,73.4,69.8,88,29.72,9.0,SSE,17.3,25.3,N/A,,Mostly Cloudy,160,2013-04-15 04:04:00
11:51 PM,73.9,69.1,85,29.72,8.0,SSE,19.6,-,N/A,,Mostly Cloudy,160,2013-04-15 04:51:00
11:59 PM,73.4,69.8,88,29.72,8.0,SSE,17.3,-,N/A,,Scattered Clouds,160,2013-04-15 04:59:00